Location: *
(32.8667°N, 13.1833°E)
Time: 01:31:06
(UTC+00:00)

Cosmos 2237 - Pass Details

Date: 18 July 2019
Orbit: 847 x 855 km, 70.8° (Epoch: 20 August)

Event Time Altitude Azimuth Distance (km) Brightness Sun altitude
Exits shadow 20:25:15 18° 204° (SSW) 1,949 5.9 -22.8°
Maximum altitude 20:29:32 81° 290° (WNW) 860 4.2 -23.4°
Drops below altitude 10° 20:35:13 10° 18° (NNE) 2,474 7.0 -24.2°
Sets 20:37:41 0° 20° (NNE) 3,413 7.8 -24.6°
